• In Spain
  • List of Countries
  • For 7 days
  • Water Temperature
  • Satellite Maps
  • Weather Map
  • Weather Widgets
  • user-avatar
    Login

    Hourly Weather Uige

    Today, 25 November, Saturday

    Time Temperature Precipitation Wind Pressure Humidity
    00:00 +22°C° 0.5 mm 1 mps 691 mmHg 98%
    01:00 +19°C° 0 mm 0 mps 691 mmHg 98%
    02:00 +19°C° 0 mm 0 mps 691 mmHg 98%
    03:00 +19°C° 0 mm 0 mps 691 mmHg 98%
    04:00 +19°C° 0 mm 0 mps 691 mmHg 98%
    05:00 +19°C° 0 mm 0 mps 691 mmHg 98%
    06:00 +19°C° 0 mm 0 mps 691 mmHg 97%
    07:00 +20°C° 0 mm 0 mps 692 mmHg 97%
    08:00 +24°C° 0 mm 1 mps 692 mmHg 88%
    09:00 +25°C° 0 mm 1 mps 692 mmHg 79%
    10:00 +27°C° 0 mm 2 mps 692 mmHg 70%
    11:00 +28°C° 0.2 mm 2 mps 692 mmHg 68%
    12:00 +29°C° 0.2 mm 2 mps 691 mmHg 66%
    13:00 +29°C° 0.2 mm 3 mps 691 mmHg 64%
    14:00 +29°C° 0.6 mm 2 mps 690 mmHg 67%
    15:00 +29°C° 0.6 mm 2 mps 690 mmHg 71%
    16:00 +28°C° 0.6 mm 2 mps 689 mmHg 74%
    17:00 +26°C° 0.8 mm 2 mps 689 mmHg 81%
    18:00 +25°C° 0.8 mm 2 mps 690 mmHg 88%
    19:00 +23°C° 0.8 mm 1 mps 690 mmHg 94%
    20:00 +23°C° 1.5 mm 1 mps 691 mmHg 95%
    21:00 +22°C° 1.5 mm 1 mps 691 mmHg 97%
    22:00 +22°C° 1.5 mm 1 mps 692 mmHg 98%
    23:00 +22°C° 1.9 mm 1 mps 692 mmHg 98%

    Tomorrow, 26 November, Sunday

    Time Temperature Precipitation Wind Pressure Humidity
    00:00 +21°C° 1.9 mm 2 mps 692 mmHg 98%
    01:00 +21°C° 1.9 mm 2 mps 691 mmHg 98%
    02:00 +21°C° 0.5 mm 1 mps 691 mmHg 98%
    03:00 +21°C° 0.5 mm 1 mps 691 mmHg 98%
    04:00 +21°C° 0.5 mm 1 mps 691 mmHg 99%
    05:00 +21°C° 0.4 mm 1 mps 691 mmHg 98%
    06:00 +21°C° 0.4 mm 1 mps 692 mmHg 97%
    07:00 +22°C° 0.4 mm 1 mps 692 mmHg 97%
    08:00 +22°C° 0.6 mm 1 mps 692 mmHg 95%
    09:00 +23°C° 0.6 mm 1 mps 693 mmHg 94%
    10:00 +21°C° 0.6 mm 0 mps 693 mmHg 92%
    11:00 +23°C° 0.8 mm 1 mps 693 mmHg 91%
    12:00 +24°C° 0.8 mm 1 mps 692 mmHg 89%
    13:00 +24°C° 0.8 mm 1 mps 692 mmHg 88%
    14:00 +24°C° 1.2 mm 1 mps 692 mmHg 90%
    15:00 +23°C° 1.2 mm 1 mps 691 mmHg 93%
    16:00 +23°C° 1.2 mm 1 mps 691 mmHg 95%
    17:00 +22°C° 1.6 mm 1 mps 691 mmHg 96%
    18:00 +22°C° 1.6 mm 1 mps 692 mmHg 97%
    19:00 +22°C° 1.6 mm 1 mps 692 mmHg 98%
    20:00 +21°C° 1 mm 1 mps 692 mmHg 98%
    21:00 +21°C° 1 mm 1 mps 693 mmHg 98%
    22:00 +19°C° 1 mm 0 mps 693 mmHg 98%
    23:00 +19°C° 0.6 mm 0 mps 693 mmHg 98%

    Day after tomorrow, 27 November, Monday

    Time Temperature Precipitation Wind Pressure Humidity
    00:00 +19°C° 0.6 mm 0 mps 693 mmHg 98%
    01:00 +19°C° 0.6 mm 0 mps 692 mmHg 98%
    02:00 +19°C° 0.9 mm 0 mps 692 mmHg 98%
    03:00 +19°C° 0.9 mm 0 mps 692 mmHg 98%
    04:00 +21°C° 0.9 mm 1 mps 691 mmHg 98%
    05:00 +19°C° 0.8 mm 0 mps 692 mmHg 98%
    06:00 +19°C° 0.8 mm 0 mps 692 mmHg 98%
    07:00 +19°C° 0.8 mm 0 mps 693 mmHg 97%
    08:00 +19°C° 0.4 mm 0 mps 693 mmHg 96%
    09:00 +20°C° 0.4 mm 0 mps 693 mmHg 95%
    10:00 +22°C° 0.4 mm 1 mps 694 mmHg 94%
    11:00 +23°C° 0.1 mm 1 mps 693 mmHg 90%
    12:00 +24°C° 0.1 mm 1 mps 693 mmHg 86%
    13:00 +25°C° 0.1 mm 2 mps 692 mmHg 82%
    14:00 +25°C° 0.2 mm 2 mps 691 mmHg 82%
    15:00 +25°C° 0.2 mm 2 mps 691 mmHg 81%
    16:00 +26°C° 0.2 mm 2 mps 690 mmHg 81%
    17:00 +24°C° 0.1 mm 2 mps 691 mmHg 86%
    18:00 +23°C° 0.1 mm 1 mps 691 mmHg 91%
    19:00 +21°C° 0.1 mm 1 mps 691 mmHg 96%
    20:00 +21°C° 0 mm 1 mps 692 mmHg 97%
    21:00 +21°C° 0 mm 1 mps 692 mmHg 97%
    22:00 +20°C° 0 mm 1 mps 692 mmHg 97%
    23:00 +20°C° 0 mm 1 mps 692 mmHg 97%

    28 November, Tuesday

    Time Temperature Precipitation Wind Pressure Humidity
    00:00 +20°C° 0 mm 1 mps 691 mmHg 97%
    01:00 +20°C° 0 mm 1 mps 691 mmHg 97%
    02:00 +19°C° 0 mm 1 mps 691 mmHg 97%
    03:00 +19°C° 0 mm 1 mps 690 mmHg 97%
    04:00 +19°C° 0 mm 1 mps 690 mmHg 97%
    05:00 +20°C° 0 mm 1 mps 691 mmHg 95%
    06:00 +21°C° 0 mm 1 mps 691 mmHg 92%
    07:00 +22°C° 0 mm 1 mps 692 mmHg 90%
    08:00 +24°C° 0 mm 1 mps 692 mmHg 80%
    09:00 +26°C° 0 mm 2 mps 693 mmHg 70%
    10:00 +28°C° 0 mm 2 mps 693 mmHg 60%
    11:00 +29°C° 0.2 mm 2 mps 693 mmHg 59%
    12:00 +30°C° 0.2 mm 2 mps 692 mmHg 58%
    13:00 +30°C° 0.2 mm 2 mps 691 mmHg 57%
    14:00 +29°C° 0.5 mm 2 mps 690 mmHg 66%
    15:00 +28°C° 0.5 mm 2 mps 690 mmHg 75%
    16:00 +27°C° 0.5 mm 1 mps 689 mmHg 84%
    17:00 +26°C° 0.4 mm 1 mps 690 mmHg 88%
    18:00 +24°C° 0.4 mm 1 mps 690 mmHg 91%
    19:00 +22°C° 0.4 mm 1 mps 691 mmHg 95%
    20:00 +22°C° 0 mm 1 mps 691 mmHg 96%
    21:00 +22°C° 0 mm 1 mps 692 mmHg 96%
    22:00 +21°C° 0 mm 1 mps 692 mmHg 97%
    23:00 +21°C° 0 mm 1 mps 692 mmHg 98%

    29 November, Wednesday

    Time Temperature Precipitation Wind Pressure Humidity
    00:00 +21°C° 0 mm 1 mps 691 mmHg 98%
    01:00 +21°C° 0 mm 1 mps 691 mmHg 99%
    02:00 +21°C° 0 mm 1 mps 691 mmHg 99%
    03:00 +21°C° 0 mm 1 mps 690 mmHg 99%
    04:00 +21°C° 0 mm 1 mps 690 mmHg 99%
    05:00 +21°C° 0 mm 1 mps 691 mmHg 98%
    06:00 +21°C° 0 mm 1 mps 691 mmHg 98%
    07:00 +20°C° 0 mm 0 mps 692 mmHg 97%
    08:00 +24°C° 0.1 mm 1 mps 692 mmHg 88%
    09:00 +26°C° 0.1 mm 1 mps 693 mmHg 78%
    10:00 +28°C° 0.1 mm 1 mps 693 mmHg 69%
    11:00 +29°C° 0.3 mm 1 mps 692 mmHg 64%
    12:00 +30°C° 0.3 mm 2 mps 692 mmHg 60%
    13:00 +31°C° 0.3 mm 2 mps 691 mmHg 55%
    14:00 +30°C° 0.8 mm 2 mps 690 mmHg 63%
    15:00 +29°C° 0.8 mm 1 mps 690 mmHg 71%
    16:00 +27°C° 0.8 mm 1 mps 689 mmHg 79%
    17:00 +26°C° 1.5 mm 1 mps 690 mmHg 84%
    18:00 +24°C° 1.5 mm 1 mps 690 mmHg 89%
    19:00 +23°C° 1.5 mm 1 mps 691 mmHg 94%
    20:00 +22°C° 1.6 mm 1 mps 691 mmHg 95%
    21:00 +22°C° 1.6 mm 1 mps 692 mmHg 96%
    22:00 +22°C° 1.6 mm 1 mps 692 mmHg 97%
    23:00 +22°C° 1 mm 1 mps 692 mmHg 98%

    30 November, Thursday

    Time Temperature Precipitation Wind Pressure Humidity
    00:00 +22°C° 1 mm 1 mps 691 mmHg 98%
    01:00 +21°C° 1 mm 1 mps 691 mmHg 98%
    02:00 +21°C° 0.5 mm 1 mps 691 mmHg 98%
    03:00 +21°C° 0.5 mm 1 mps 691 mmHg 98%
    04:00 +21°C° 0.5 mm 1 mps 691 mmHg 99%
    05:00 +21°C° 0.1 mm 1 mps 691 mmHg 98%
    06:00 +22°C° 0.1 mm 1 mps 692 mmHg 98%
    07:00 +22°C° 0.1 mm 1 mps 692 mmHg 98%
    08:00 +23°C° 0.2 mm 1 mps 693 mmHg 94%
    09:00 +24°C° 0.2 mm 1 mps 693 mmHg 90%
    10:00 +25°C° 0.2 mm 1 mps 693 mmHg 86%
    11:00 +25°C° 0.6 mm 1 mps 692 mmHg 85%
    12:00 +26°C° 0.6 mm 1 mps 692 mmHg 84%
    13:00 +26°C° 0.6 mm 1 mps 691 mmHg 83%
    14:00 +26°C° 0.7 mm 1 mps 691 mmHg 85%
    15:00 +25°C° 0.7 mm 1 mps 691 mmHg 87%
    16:00 +25°C° 0.7 mm 1 mps 690 mmHg 89%
    17:00 +24°C° 0.3 mm 1 mps 691 mmHg 91%
    18:00 +23°C° 0.3 mm 1 mps 691 mmHg 94%
    19:00 +22°C° 0.3 mm 1 mps 691 mmHg 96%
    20:00 +21°C° 0 mm 1 mps 692 mmHg 96%
    21:00 +21°C° 0 mm 1 mps 692 mmHg 97%
    22:00 +21°C° 0 mm 1 mps 692 mmHg 97%
    23:00 +21°C° 0 mm 1 mps 692 mmHg 97%
    Show more